Вернуться в каталог

STARLINK-30999

АктивенСвязьVLEO
NORAD 58551·PAYLOAD·🇺🇸 United States

Запущен Dec 8, 2023 с Vandenberg Space Force Base

Loading…

Ближайшие Пролёты (ближайшие 24 часа)

TLE

СвежийSource: CelesTrak SupGP

Эпоха: Sep 15, 2026, 02:38 UTC

1 58551C 23192W   26258.11020833 -.00026692  00000+0 -78850-3 0  2587
2 58551  53.1563 250.5499 0001255  97.2319  90.6463 15.34408989    17

Отслеживайте STARLINK-30999 в реальном времени с AllMySat

Download on the App Store